• In Czech Republic
  • List of Countries
  • For 7 days
  • Water Temperature
  • Satellite Maps
  • Weather Map
  • Weather Widgets
  • user-avatar
    Login

    Hourly Weather Vatican

    Today, 18 October, Thursday

    Time Temperature Precipitation Wind Pressure Humidity
    00:00 +21°C° 0 mm 3 mps 759 mmHg 73%
    01:00 +21°C° 0 mm 4 mps 758 mmHg 73%
    02:00 +21°C° 0 mm 4 mps 758 mmHg 74%
    03:00 +20°C° 0 mm 4 mps 758 mmHg 74%
    04:00 +20°C° 0 mm 4 mps 758 mmHg 74%
    05:00 +20°C° 0 mm 4 mps 758 mmHg 74%
    06:00 +20°C° 0 mm 4 mps 758 mmHg 74%
    07:00 +20°C° 0 mm 4 mps 758 mmHg 74%
    08:00 +22°C° 0 mm 4 mps 758 mmHg 67%
    09:00 +25°C° 0 mm 4 mps 758 mmHg 61%
    10:00 +26°C° 0 mm 3 mps 758 mmHg 54%
    11:00 +27°C° 0 mm 3 mps 758 mmHg 51%
    12:00 +28°C° 0 mm 3 mps 757 mmHg 48%
    13:00 +29°C° 0 mm 2 mps 757 mmHg 44%
    14:00 +28°C° 0 mm 2 mps 757 mmHg 47%
    15:00 +28°C° 0 mm 2 mps 757 mmHg 49%
    16:00 +27°C° 0 mm 2 mps 757 mmHg 52%
    17:00 +26°C° 0 mm 2 mps 757 mmHg 57%
    18:00 +25°C° 0 mm 2 mps 757 mmHg 62%
    19:00 +24°C° 0 mm 2 mps 758 mmHg 67%
    20:00 +23°C° 0 mm 2 mps 758 mmHg 68%
    21:00 +23°C° 0 mm 2 mps 758 mmHg 69%
    22:00 +23°C° 0 mm 2 mps 759 mmHg 70%
    23:00 +21°C° 0 mm 2 mps 759 mmHg 70%

    Tomorrow, 19 October, Friday

    Time Temperature Precipitation Wind Pressure Humidity
    00:00 +21°C° 0 mm 3 mps 759 mmHg 70%
    01:00 +21°C° 0 mm 3 mps 759 mmHg 69%
    02:00 +21°C° 0 mm 3 mps 759 mmHg 69%
    03:00 +20°C° 0 mm 3 mps 759 mmHg 69%
    04:00 +20°C° 0 mm 3 mps 759 mmHg 69%
    05:00 +20°C° 0 mm 3 mps 759 mmHg 69%
    06:00 +20°C° 0 mm 2 mps 760 mmHg 68%
    07:00 +20°C° 0 mm 2 mps 760 mmHg 67%
    08:00 +23°C° 0 mm 2 mps 760 mmHg 62%
    09:00 +24°C° 0 mm 2 mps 760 mmHg 57%
    10:00 +26°C° 0 mm 1 mps 761 mmHg 52%
    11:00 +27°C° 0 mm 2 mps 761 mmHg 50%
    12:00 +27°C° 0 mm 2 mps 761 mmHg 49%
    13:00 +28°C° 0 mm 2 mps 761 mmHg 47%
    14:00 +27°C° 0 mm 2 mps 761 mmHg 50%
    15:00 +27°C° 0 mm 3 mps 761 mmHg 53%
    16:00 +26°C° 0 mm 3 mps 761 mmHg 56%
    17:00 +25°C° 0 mm 3 mps 761 mmHg 62%
    18:00 +24°C° 0 mm 3 mps 762 mmHg 68%
    19:00 +22°C° 0 mm 3 mps 762 mmHg 73%
    20:00 +22°C° 0 mm 3 mps 762 mmHg 74%
    21:00 +21°C° 0 mm 2 mps 763 mmHg 75%
    22:00 +21°C° 0 mm 2 mps 763 mmHg 75%
    23:00 +21°C° 0 mm 2 mps 763 mmHg 75%

    Day after tomorrow, 20 October, Saturday

    Time Temperature Precipitation Wind Pressure Humidity
    00:00 +21°C° 0 mm 2 mps 763 mmHg 74%
    01:00 +20°C° 0 mm 2 mps 763 mmHg 74%
    02:00 +20°C° 0 mm 2 mps 763 mmHg 73%
    03:00 +20°C° 0 mm 2 mps 763 mmHg 72%
    04:00 +20°C° 0 mm 2 mps 763 mmHg 71%
    05:00 +20°C° 0 mm 2 mps 763 mmHg 71%
    06:00 +19°C° 0 mm 2 mps 764 mmHg 70%
    07:00 +19°C° 0 mm 2 mps 764 mmHg 70%
    08:00 +21°C° 0 mm 2 mps 764 mmHg 64%
    09:00 +24°C° 0 mm 2 mps 764 mmHg 57%
    10:00 +26°C° 0 mm 2 mps 764 mmHg 51%
    11:00 +26°C° 0 mm 2 mps 764 mmHg 49%
    12:00 +27°C° 0 mm 2 mps 764 mmHg 47%
    13:00 +28°C° 0 mm 2 mps 764 mmHg 45%
    14:00 +27°C° 0 mm 2 mps 764 mmHg 47%
    15:00 +27°C° 0 mm 3 mps 764 mmHg 48%
    16:00 +26°C° 0 mm 3 mps 763 mmHg 50%
    17:00 +25°C° 0 mm 3 mps 764 mmHg 54%
    18:00 +24°C° 0 mm 3 mps 764 mmHg 58%
    19:00 +23°C° 0 mm 2 mps 764 mmHg 62%
    20:00 +23°C° 0 mm 2 mps 764 mmHg 64%
    21:00 +21°C° 0 mm 2 mps 764 mmHg 65%
    22:00 +21°C° 0 mm 2 mps 765 mmHg 66%
    23:00 +21°C° 0 mm 2 mps 765 mmHg 65%

    21 October, Sunday

    Time Temperature Precipitation Wind Pressure Humidity
    00:00 +21°C° 0 mm 2 mps 765 mmHg 65%
    01:00 +21°C° 0 mm 3 mps 765 mmHg 64%
    02:00 +20°C° 0 mm 3 mps 765 mmHg 64%
    03:00 +20°C° 0 mm 3 mps 764 mmHg 63%
    04:00 +20°C° 0 mm 3 mps 764 mmHg 62%
    05:00 +20°C° 0 mm 3 mps 764 mmHg 60%
    06:00 +19°C° 0 mm 3 mps 765 mmHg 58%
    07:00 +19°C° 0 mm 3 mps 765 mmHg 55%
    08:00 +21°C° 0 mm 3 mps 765 mmHg 50%
    09:00 +22°C° 0 mm 3 mps 765 mmHg 45%
    10:00 +25°C° 0 mm 2 mps 765 mmHg 40%
    11:00 +26°C° 0 mm 2 mps 765 mmHg 40%
    12:00 +26°C° 0 mm 2 mps 765 mmHg 39%
    13:00 +27°C° 0 mm 2 mps 765 mmHg 38%
    14:00 +26°C° 0 mm 2 mps 765 mmHg 41%
    15:00 +26°C° 0 mm 3 mps 764 mmHg 44%
    16:00 +25°C° 0 mm 3 mps 764 mmHg 46%
    17:00 +24°C° 0 mm 3 mps 764 mmHg 51%
    18:00 +22°C° 0 mm 3 mps 764 mmHg 57%
    19:00 +21°C° 0 mm 4 mps 765 mmHg 62%
    20:00 +20°C° 0 mm 3 mps 765 mmHg 63%
    21:00 +20°C° 0 mm 3 mps 765 mmHg 63%
    22:00 +19°C° 0 mm 3 mps 765 mmHg 64%
    23:00 +19°C° 0 mm 3 mps 765 mmHg 64%

    22 October, Monday

    Time Temperature Precipitation Wind Pressure Humidity
    00:00 +19°C° 0 mm 2 mps 765 mmHg 64%
    01:00 +18°C° 0 mm 2 mps 765 mmHg 64%
    02:00 +18°C° 0 mm 2 mps 765 mmHg 64%
    03:00 +18°C° 0 mm 2 mps 764 mmHg 64%
    04:00 +17°C° 0 mm 2 mps 764 mmHg 64%
    05:00 +17°C° 0 mm 2 mps 764 mmHg 62%
    06:00 +17°C° 0 mm 2 mps 764 mmHg 60%
    07:00 +17°C° 0 mm 2 mps 764 mmHg 59%
    08:00 +19°C° 0 mm 2 mps 764 mmHg 53%
    09:00 +20°C° 0 mm 2 mps 764 mmHg 47%
    10:00 +23°C° 0 mm 1 mps 764 mmHg 42%
    11:00 +24°C° 0 mm 2 mps 763 mmHg 40%
    12:00 +25°C° 0 mm 2 mps 763 mmHg 37%
    13:00 +25°C° 0 mm 3 mps 762 mmHg 35%
    14:00 +25°C° 0 mm 3 mps 762 mmHg 36%
    15:00 +25°C° 0 mm 4 mps 762 mmHg 37%
    16:00 +25°C° 0 mm 4 mps 761 mmHg 38%
    17:00 +23°C° 0 mm 4 mps 761 mmHg 42%
    18:00 +21°C° 0 mm 4 mps 761 mmHg 47%
    19:00 +20°C° 0 mm 4 mps 762 mmHg 51%
    20:00 +20°C° 0 mm 4 mps 762 mmHg 51%
    21:00 +19°C° 0 mm 4 mps 762 mmHg 51%
    22:00 +19°C° 0 mm 3 mps 762 mmHg 50%
    23:00 +19°C° 0 mm 4 mps 761 mmHg 51%

    23 October, Tuesday

    Time Temperature Precipitation Wind Pressure Humidity
    00:00 +18°C° 0 mm 4 mps 761 mmHg 51%
    01:00 +18°C° 0 mm 4 mps 761 mmHg 51%
    02:00 +17°C° 0 mm 4 mps 761 mmHg 52%
    03:00 +17°C° 0 mm 4 mps 761 mmHg 53%
    04:00 +17°C° 0 mm 4 mps 761 mmHg 55%
    05:00 +17°C° 0 mm 4 mps 761 mmHg 56%
    06:00 +15°C° 0 mm 4 mps 761 mmHg 57%
    07:00 +15°C° 0 mm 4 mps 761 mmHg 58%
    08:00 +18°C° 0 mm 4 mps 760 mmHg 55%
    09:00 +19°C° 0 mm 4 mps 760 mmHg 51%
    10:00 +21°C° 0 mm 4 mps 760 mmHg 47%
    11:00 +21°C° 0 mm 4 mps 760 mmHg 48%
    12:00 +21°C° 0 mm 4 mps 759 mmHg 49%
    13:00 +22°C° 0 mm 4 mps 759 mmHg 50%
    14:00 +21°C° 0 mm 4 mps 758 mmHg 53%
    15:00 +21°C° 0 mm 4 mps 758 mmHg 56%
    16:00 +20°C° 0 mm 4 mps 757 mmHg 59%
    17:00 +20°C° 0 mm 4 mps 757 mmHg 63%
    18:00 +19°C° 0 mm 3 mps 757 mmHg 66%
    19:00 +18°C° 0 mm 3 mps 757 mmHg 69%
    20:00 +18°C° 0 mm 3 mps 757 mmHg 71%
    21:00 +18°C° 0 mm 3 mps 756 mmHg 72%
    22:00 +17°C° 0 mm 4 mps 756 mmHg 74%
    23:00 +17°C° 0.3 mm 4 mps 756 mmHg 74%
    Show more